Miscellaneous Local Product
Issued by NWS Hastings, NE

Home | Current Version | Previous Version | Graphics & Text | Print | Product List | Glossary On
Versions: 1 2 3 4 5 6 7 8 9 10 11 12 13 14 15 16 17 18 19 20 21 22 23 24 25 26 27 28 29 30 31 32 33 34 35 36 37 38 39 40 41 42 43 44 45 46 47 48 49 50
000
AXUS43 KGID 281802
MISGRI

GID CWA HOURLY WEATHER ROUNDUP
NATIONAL WEATHER SERVICE HASTINGS NE
100 PM CDT TUE JUL 28 2015

NOTE: "FAIR" INDICATES FEW OR NO CLOUDS BELOW 12,000 FEET WITH NO
SIGNIFICANT WEATHER AND/OR OBSTRUCTIONS TO VISIBILITY.

...SOUTH CENTRAL NEBRASKA...

CITY           SKY/WX    TMP DP  RH WIND       PRES   REMARKS
GRAND ISLAND   PTSUNNY   79  68  69 N16G24    29.94R
HASTINGS       MOSUNNY   78  67  68 N17       29.93R
KEARNEY        SUNNY     81  54  39 N24G30    29.96R
ORD            SUNNY     79  51  37 N17G29    29.96S
YORK           MOSUNNY   84  73  70 N5        29.88R HX  91
AURORA         PTSUNNY   76  71  85 N18       29.92R
LEXINGTON      MOSUNNY   76  51  40 N13       29.99S
HOLDREGE       SUNNY     77  56  47 N15G25    29.97R
HEBRON         MOSUNNY   89  69  50 NW7       29.85S HX  93

...NEBRASKA PANHANDLE...

CITY           SKY/WX    TMP DP  RH WIND       PRES   REMARKS
CHADRON        SUNNY     75  39  27 NW16G30   30.08R
ALLIANCE       SUNNY     76  35  22 NW17G26   30.09S
SCOTTSBLUFF    SUNNY     76  35  22 NW16      30.12R
SIDNEY         SUNNY     78  35  21 N15G24    30.13S

...WESTERN AND NORTH CENTRAL NEBRASKA...

CITY           SKY/WX    TMP DP  RH WIND       PRES   REMARKS
VALENTINE      SUNNY     78  44  29 N13G22    30.02R
AINSWORTH      SUNNY     77  48  35 NW14      30.02S
ONEILL         SUNNY     76  55  49 NW17G23   29.99S
BROKEN BOW     SUNNY     79  51  37 N14G23    30.01R
IMPERIAL       MOSUNNY   81  40  23 N18       30.07S
NORTH PLATTE   SUNNY     81  47  30 N16       30.02S
MCCOOK         SUNNY     81  53  37 N16       30.01R

...EASTERN NEBRASKA...

CITY           SKY/WX    TMP DP  RH WIND       PRES   REMARKS
NORFOLK        CLOUDY    73  67  81 NW13      29.92R
SO SIOUX CITY  CLOUDY    77  70  79 VRB3      29.87F
TEKAMAH        TSTM      79  75  87 SE8       29.85F
COLUMBUS       CLOUDY    77  72  83 CALM      29.89S
ALBION         MOSUNNY   76  64  65 N15G22    29.92F
OMAHA EPPLEY   PTSUNNY   87  75  67 SE12      29.85S HX  96
MILLARD        MOSUNNY   86  76  73 SE10      29.85F HX  96
LINCOLN        MOSUNNY   87  73  62 S9        29.85F HX  94
NEBRASKA CITY  SUNNY     87  72  61 S14       29.86F HX  93
BEATRICE       SUNNY     89  73  60 S9        29.85S HX  96
FALLS CITY     SUNNY     90  76  63 S12       29.85F HX 101

...NORTHERN KANSAS...

CITY           SKY/WX    TMP DP  RH WIND       PRES   REMARKS
GOODLAND       SUNNY     80  43  26 N20G28    30.07R
HILL CITY      SUNNY     83  56  39 N26G33    29.96R
NORTON         CLEAR     79  46  31 N22G28    29.96S
PHILLIPSBURG   SUNNY     84  61  45 N21G28    29.92R
SMITH CENTER   PTSUNNY   84  66  54 N21G28    29.89R
HAYS           SUNNY     90  70  51 N23       29.88R HX  95
RUSSELL        SUNNY     91  70  49 W7        29.85R HX  96
CONCORDIA      SUNNY     92  70  48 MISG      29.84S HX  97
SALINA         SUNNY    100  68  35 SW14G21   29.83S HX 105
TOPEKA         SUNNY     93  72  50 S14G22    29.86F HX 101



USA.gov is the U.S. government's official web portal to all federal, state and local government web resources and services.